Probability
0 0 0 0 0 0 0 0 0 0 0 0 0 0 0 0 0 0 0 0 0 0 0 0 0 0 0 0 0 0 0 0 0 0 0 0 0 0 0 0 0 0 0
0 0 0 0 0 0 0 0 0 0 0 0 0 0 0 0 0 0 0 0 0 0 0 0 0 0 0 0 0 0 0 0 0 0 0 0 0 0 0 0 0 0 0
0 0 0 0 0 0 0 0 0 0 0 0 0 0 0 0 0 0 0 0 0 0 0 0 0 0 0 0 0 0 0 0 0 0 0 0 0 0 0 0 0 0 0
0 0 0 0 0 0 0 0 0 0 0 0 0 0 0 0 0 0 0 0 0 0 0 0 0 0 0 0 0 0 0 0 0 0 0 0 0 0 0 0 0 0 0
0 0 0 0 0 0 0 0 0 0 0 0 0 0 0 0 0 0 0 0 0 0 0 0 0 0 0 0 0 0 0 0 0 0 0 0 0 0 0 0 0 0 0
0 0 0 0 0 0 0 0 0 0 0 0 0 0 0 0 0 0 0 0 0 0 0 0 0 0 0 0 0 0 0 0 0 0 0 0 0 0 0 0 0 0 0
0 0 0 0 0 0 0 0 0 0 0 0 0 0 0 0 0 0 0 0 0 0 0 0 0 0 0 0 0 0 0 0 0 0 0 0 0 0 0 0 0 0 0
0 0 0 0 0 0 0 0 0 0 0 0 0 0 0 0 0 0 0 0 0 0 0 0 0 0 0 0 0 0 0 0 0 0 0 0 0 0 0 0 0 0 0
0 0 0 0 0 0 0 0 0 0 0 0 0 0 0 0 0 0 0 0 0 0 0 0 0 0 0 0 0 0 0 0 0 0 0 0 0 0 0 0 0 0 0
0 0 0 0 0 0 0 0 0 0 0 0 0 0 0 0 0 0 0 0 0 0 0 0 0 0 0 0 0 0 0 0 0 0 0 0 0 0 0 0 0 0 0
0 0 0 0 0 0 0 0 0 0 0 0 0 0 0 0 0 0 0 0 0 0 0 0 0 0 0 0 0 0 0 0 0 0 0 0 0 0 0 0 0 0 0
0 0 0 0 0 0 0 0 0 0 0 0 0 0 0 0 0 0 0 0 0 0 0 0 0 0 0 0 0 0 0 0 0 0 0 0 0 0 0 0 0 0 0
0 0 0 0 0 0 0 0 0 0 0 0 0 0 0 0 0 0 0 0 0 0 0 0 0 0 0 0 0 0 0 0 0 0 0 0 0 0 0 0 0 0 0
0 0 0 0 0 0 0 0 0 0 0 0 0 0 0 0 0 0 0 0 0 0 0 0 0 0 0 0 0 0 0 0 0 0 0 0 0 0 0 0 0 0 0
0 0 0 0 0 0 0 0 0 0 0 0 0 0 0 0 0 0 0 0 0 0 0 0 0 0 0 0 0 0 0 0 0 0 0 0 0 0 0 0 0 0 0
0 0 0 0 0 0 0 0 0 0 0 0 0 0 0 0 0 0 0 0 0 0 0 0 0 0 0 0 0 0 0 0 0 0 0 0 0 0 0 0 0 0 0
0 0 0 0 0 0 0 0 0 0 0 0 0 0 0 0 0 0 0 0 0 0 0 0 0 0 0 0 0 0 0 0 0 0 0 0 0 0 0 0 0 0 0
0 0 0 0 0 0 0 0 0 0 0 0 0 0 0 0 0 0 0 0 0 0 0 0 0 0 0 0 0 0 0 0 0 0 0 0 0 0 0 0 0 0 0
0 0 0 0 0 0 0 0 0 0 0 0 0 0 0 0 0 0 0 0 0 0 0 0 0 0 0 0 0 0 0 0 0 0 0 0 0 0 0 0 0 0 0
0 0 0 0 0 0 0 0 0 0 0 0 0 0 0 0 0 0 0 0 0 0 0 0 0 0 0 0 0 0 0 0 0 0 0 0 0 0 0 0 0 0 0
0 0 0 0 0 0 0 0 0 0 0 0 0 0 0 0 0 0 0 0 0 0 0 0 0 0 0 0 0 0 0 0 0 0 0 0 0 0 0 0 0 0 0
0 0 0 0 0 0 0 0 0 0 0 0 0 0 0 0 0 0 0 0 0 0 0 0 0 0 0 0 0 0 0 0 0 0 0 0 0 0 0 0 0 0 0
0 0 0 0 0 0 0 0 0 0 0 0 0 0 0 0 0 0 0 0 0 0 0 0 0 0 0 0 0 0 0 0 0 0 0 0 0 0 0 0 0 0 0
0 0 0 0 0 0 0 0 0 0 0 0 0 0 0 0 0 0 0 0 0 0 0 0 0 0 0 0 0 0 0 0 0 0 0 0 0 0 0 0 0 0 0
0 0 0 0 0 0 0 0 0 0 0 0 0 0 0 0 0 0 0 0 0 0 0 0 0 0 0 0 0 0 0 0 0 0 0 0 0 0 0 0 0 0 0
0 0 0 0 0 0 0 0 0 0 0 0 0 0 0 0 0 0 0 0 0 0 0 0 0 0 0 0 0 0 0 0 0 0 0 0 0 0 0 0 0 0 0
Wind_Speed
6 7 9 10 12 15 16 17 17 16 12 7 5 5 5 6 6 7 9 8 5 3 2 1 3 4 4 5 6 4 4 2 3 2 2 3 4 5 4 4 4 4 4
7 9 10 12 14 15 15 16 16 16 15 9 4 4 3 4 5 7 10 11 9 7 4 3 1 1 2 3 4 4 3 3 4 4 1 3 5 5 5 4 5 5 4
6 8 10 12 13 15 14 14 15 16 15 14 9 7 7 6 8 11 10 12 12 10 8 6 3 2 1 2 4 5 6 4 4 3 4 4 6 4 3 5 5 5 4
6 7 9 11 12 11 10 13 14 16 15 13 13 14 10 9 8 6 8 11 13 13 12 10 7 4 2 3 3 4 3 4 4 4 3 3 2 2 5 4 3 5 6
5 6 7 8 9 9 9 10 12 14 14 14 14 12 11 8 6 8 11 11 11 13 14 12 10 8 5 4 4 3 4 4 5 5 4 4 3 3 3 5 4 4 6
5 5 6 6 8 8 9 9 11 13 12 12 12 12 12 11 12 12 11 9 7 9 14 12 10 9 7 6 6 4 4 4 6 6 5 5 4 4 5 7 5 5 5
5 4 5 6 7 8 8 8 10 11 10 11 11 10 9 9 11 9 8 8 7 7 11 11 10 9 8 7 6 5 5 5 6 7 7 7 7 4 4 4 4 5 4
5 5 5 5 5 6 6 7 8 8 8 8 8 8 8 6 6 7 6 6 5 5 8 9 9 9 9 9 7 5 5 5 5 8 8 7 7 6 7 6 5 6 5
7 6 6 5 5 5 5 5 5 5 6 6 5 6 6 6 6 5 5 4 5 6 8 8 9 9 9 9 8 6 6 6 5 6 7 7 6 6 7 7 7 8 10
7 7 6 6 5 4 4 4 4 4 3 3 3 3 4 4 4 4 5 6 6 6 7 8 8 9 9 8 8 7 7 7 7 5 7 7 6 6 6 7 7 8 10
9 7 6 6 5 4 4 3 3 2 1 1 1 2 2 3 4 4 5 5 6 7 7 8 9 9 9 8 7 8 9 9 9 8 8 8 8 7 6 6 7 8 8
7 7 7 6 5 5 4 4 4 4 3 2 1 1 2 2 3 4 5 5 6 6 7 7 8 9 10 9 9 10 10 10 11 11 9 10 8 9 7 7 8 8 8
7 7 7 6 6 6 5 5 5 5 5 4 3 2 3 3 4 5 5 6 6 7 7 7 8 9 10 10 10 10 11 11 11 11 11 11 9 11 8 9 9 7 8
8 8 7 7 7 7 6 6 6 6 5 4 3 3 3 4 5 5 6 6 7 7 8 8 9 9 10 11 12 12 12 12 12 12 12 12 11 12 11 10 10 9 9
7 8 8 7 7 6 6 6 6 5 4 3 2 3 4 4 5 6 7 7 8 9 9 11 11 10 10 10 11 12 12 13 15 14 13 13 16 19 16 13 10 9 10
7 7 8 8 8 8 7 6 5 3 2 1 2 4 5 6 6 7 9 10 11 11 12 13 13 15 14 21 27 23 16 16 17 18 16 15 15 20 26 28 26 21 15
6 7 7 8 8 7 6 5 4 2 1 1 3 4 4 5 6 9 10 12 13 14 15 15 15 17 19 27 29 28 21 19 18 19 18 17 15 15 14 20 27 25 27
6 6 6 7 6 5 4 4 3 3 1 1 2 3 3 4 7 9 11 12 12 13 14 16 16 18 19 27 29 29 22 19 20 19 20 20 20 18 20 18 18 18 19
7 8 8 7 5 5 5 5 4 2 1 1 1 2 3 5 7 9 11 11 12 13 13 14 14 15 17 26 29 29 16 16 19 19 19 20 20 26 30 24 21 21 20
7 7 6 5 6 5 5 5 3 2 1 1 2 3 4 5 8 10 11 10 11 13 14 14 13 15 15 24 28 28 13 14 15 15 17 21 24 27 29 21 19 21 20
8 7 7 6 6 6 5 4 3 2 1 1 2 3 5 6 8 9 9 10 12 13 13 15 14 14 15 21 26 27 14 13 14 14 13 14 26 30 31 29 21 25 24
8 7 7 7 6 6 5 4 3 1 1 1 3 5 6 7 7 7 9 9 10 12 12 12 13 11 13 17 22 27 27 26 18 16 15 16 29 32 33 27 27 34 31
8 7 7 7 6 5 4 4 2 1 1 2 5 6 7 6 7 7 10 9 8 9 10 11 12 12 11 14 25 27 30 31 21 17 26 31 35 34 25 28 33 27 18
7 6 7 7 6 5 4 3 2 1 1 4 5 6 6 6 6 6 7 7 8 9 10 12 13 13 12 12 12 12 15 21 21 19 22 32 34 30 27 22 20 16 15
5 6 7 7 6 5 4 3 2 1 3 4 6 6 6 6 6 7 7 10 10 12 15 13 13 14 14 16 28 24 17 15 16 19 15 13 13 13 13 13 13 13 14
6 6 6 5 5 4 3 3 3 3 3 4 4 4 5 5 6 7 10 16 19 24 27 26 23 17 23 31 32 32 33 34 32 23 13 13 12 13 13 13 13 12 13
Wind_Direction
41 27 21 21 30 31 31 28 27 21 20 15 18 28 31 23 27 26 26 26 32 49 77 108 144 161 177 186 181 153 166 158 130 110 319 305 279 263 249 234 224 218 208
40 33 31 32 35 35 33 34 31 27 25 19 11 25 28 27 22 24 26 24 26 31 31 33 27 195 182 171 173 164 160 174 162 147 146 288 298 262 238 230 226 223 214
51 35 34 34 36 37 33 36 36 35 30 27 28 25 26 22 20 17 15 15 18 20 21 21 20 350 281 219 206 195 183 194 202 183 166 195 248 292 278 241 231 221 218
51 45 41 41 39 35 34 40 41 41 36 36 41 46 43 35 17 9 14 15 21 21 16 12 10 4 337 295 255 228 221 202 210 221 221 204 200 249 302 298 262 238 230
64 56 49 48 43 36 38 39 46 46 41 43 46 49 46 37 23 25 23 19 17 20 17 13 9 2 350 328 305 272 245 231 226 217 214 217 209 189 224 280 294 275 244
84 70 57 54 48 40 41 41 49 47 42 46 47 49 47 39 35 29 24 16 11 12 12 8 10 5 358 344 327 306 278 261 253 248 233 224 219 207 206 241 250 256 263
119 100 78 63 55 48 42 41 49 47 38 45 46 44 44 43 41 30 23 17 11 8 2 2 1 1 355 349 342 329 310 289 273 264 259 249 241 219 214 233 254 260 271
149 137 124 104 86 73 60 53 52 48 39 43 42 39 40 40 36 30 23 15 5 355 354 355 355 354 353 352 348 335 318 305 292 284 276 270 260 241 234 233 235 263 270
171 160 146 131 120 106 92 81 73 61 48 44 45 40 37 37 29 18 13 5 355 351 350 349 350 347 347 347 344 335 323 313 294 283 279 277 273 261 252 243 227 238 260
183 171 161 153 147 140 131 114 99 89 70 55 46 41 28 24 16 8 359 350 342 341 339 340 338 336 335 338 339 330 323 317 304 290 280 276 271 265 256 251 245 237 250
185 176 169 165 160 157 160 158 152 139 118 80 51 28 3 358 354 348 339 333 329 331 331 329 327 325 322 324 323 317 315 313 308 303 292 282 275 271 262 252 251 250 245
177 169 166 165 170 180 187 191 193 197 206 205 206 275 305 317 321 316 312 313 311 310 309 310 312 313 315 315 312 308 306 301 300 299 296 289 285 275 268 259 253 251 246
165 161 164 172 183 192 197 199 201 207 211 208 216 250 277 289 298 301 301 301 298 297 295 293 294 297 300 303 302 299 296 291 288 288 287 286 284 282 275 266 263 257 250
170 170 179 189 195 198 200 202 208 208 207 208 224 261 282 296 304 308 308 304 299 296 293 289 286 286 288 291 291 292 291 288 285 282 279 277 274 275 275 274 269 264 258
185 190 195 202 208 212 215 213 213 209 203 212 256 291 310 318 322 322 319 315 310 307 302 300 297 293 289 288 289 291 289 288 287 283 278 274 271 269 272 272 270 265 264
197 202 203 208 216 222 224 219 215 212 193 245 311 330 334 335 336 333 330 323 317 313 309 305 302 299 297 302 304 302 297 291 287 285 284 280 275 274 276 275 273 267 262
205 202 204 212 221 223 214 201 198 160 111 0 336 338 344 346 343 334 325 318 314 310 306 304 303 301 302 305 305 303 300 293 288 287 285 283 280 280 278 278 277 274 268
207 208 213 221 222 205 176 155 134 121 103 356 339 3 10 345 328 320 312 309 307 305 304 305 304 300 301 307 308 306 300 291 287 286 285 284 283 281 282 280 273 267 264
208 215 219 215 191 167 152 140 131 117 99 350 22 29 355 323 314 307 304 304 303 301 298 296 297 298 302 304 303 299 292 286 286 286 284 283 283 282 282 279 274 272 268
219 220 210 183 164 154 140 140 145 153 182 81 7 344 322 305 299 298 299 298 296 295 297 296 296 294 293 296 298 298 291 288 288 288 286 285 285 286 286 280 274 270 268
227 212 187 175 164 147 140 149 160 180 129 69 329 308 299 291 288 287 289 292 293 294 293 293 291 288 287 291 295 295 292 286 286 285 286 285 289 289 289 285 279 276 277
221 192 175 164 145 139 141 159 182 146 88 324 299 290 283 282 285 280 286 286 288 292 291 291 291 288 287 287 290 291 290 289 286 284 284 281 283 283 283 282 278 282 282
210 184 169 155 145 140 146 177 185 168 284 299 287 279 274 267 272 278 289 291 287 289 293 294 293 291 286 284 289 289 289 287 282 275 274 277 281 283 283 280 279 280 276
195 166 157 162 168 162 159 176 204 199 259 279 280 278 278 280 277 278 285 287 289 289 289 288 288 289 288 288 286 280 280 279 278 276 274 275 276 275 273 272 273 269 267
170 158 165 169 170 164 176 198 216 223 255 268 271 280 281 280 285 283 278 284 275 276 288 290 293 299 300 296 300 302 299 292 284 287 278 272 266 259 257 256 256 257 264
157 154 156 159 162 174 212 228 233 229 244 268 277 283 288 286 289 294 296 294 297 300 301 303 304 304 303 308 311 313 312 311 307 302 291 288 283 275 268 261 257 255 259